When you browse on this site, cookies collect data to enhance your experience and personalize the content and advertising you see.
Visit our Privacy Policy to learn more. By continuing to use the site, you agree to this use of cookies and data.
  • In Österreich
  • Länderverzeichnis
  • Für 7 Tage
  • Wassertemperatur
  • Wetterkarte
  • News
  • Widgets
  • user-avatar
    Anmelden

    Stündliche Wetter Scharan

    Heute, 29 Februar, Samstag

    Zeit Temperatur Niederschläge Wind Luftdruck Luftfeuchtigkeit
    00:00 +4°C° 0 mm 1 m/S 584 mmHg 70%
    01:00 +3°C° 0 mm 1 m/S 583 mmHg 70%
    02:00 +3°C° 0 mm 1 m/S 583 mmHg 70%
    03:00 +3°C° 0 mm 1 m/S 583 mmHg 70%
    04:00 +3°C° 0 mm 1 m/S 583 mmHg 70%
    05:00 +1°C° 0 mm 2 m/S 582 mmHg 66%
    06:00 +2°C° 0 mm 1 m/S 583 mmHg 65%
    07:00 +3°C° 0 mm 1 m/S 583 mmHg 64%
    08:00 +3°C° 0 mm 1 m/S 583 mmHg 62%
    09:00 +4°C° 0 mm 1 m/S 584 mmHg 59%
    10:00 +5°C° 0 mm 1 m/S 584 mmHg 55%
    11:00 +6°C° 0 mm 1 m/S 584 mmHg 52%
    12:00 +7°C° 0 mm 1 m/S 585 mmHg 49%
    13:00 +8°C° 0 mm 1 m/S 585 mmHg 47%
    14:00 +9°C° 0 mm 1 m/S 585 mmHg 45%
    15:00 +9°C° 0 mm 1 m/S 585 mmHg 45%
    16:00 +8°C° 0 mm 2 m/S 585 mmHg 45%
    17:00 +8°C° 0 mm 2 m/S 585 mmHg 45%
    18:00 +7°C° 0 mm 2 m/S 585 mmHg 52%
    19:00 +7°C° 0 mm 1 m/S 585 mmHg 59%
    20:00 +6°C° 0 mm 1 m/S 585 mmHg 66%
    21:00 +5°C° 0 mm 1 m/S 585 mmHg 67%
    22:00 +5°C° 0 mm 1 m/S 585 mmHg 69%
    23:00 +4°C° 0 mm 1 m/S 585 mmHg 71%

    Morgen, 1 März, Sonntag

    Zeit Temperatur Niederschläge Wind Luftdruck Luftfeuchtigkeit
    00:00 +4°C° 0 mm 1 m/S 584 mmHg 73%
    01:00 +3°C° 0 mm 1 m/S 584 mmHg 74%
    02:00 +2°C° 0 mm 2 m/S 584 mmHg 76%
    03:00 +2°C° 0 mm 2 m/S 584 mmHg 78%
    04:00 +2°C° 0 mm 2 m/S 584 mmHg 79%
    05:00 +1°C° 0 mm 2 m/S 584 mmHg 81%
    06:00 +2°C° 0 mm 2 m/S 584 mmHg 79%
    07:00 +2°C° 0 mm 2 m/S 584 mmHg 77%
    08:00 +2°C° 0 mm 2 m/S 585 mmHg 76%
    09:00 +5°C° 0 mm 1 m/S 585 mmHg 69%
    10:00 +6°C° 0 mm 1 m/S 586 mmHg 62%
    11:00 +7°C° 0 mm 1 m/S 587 mmHg 55%
    12:00 +8°C° 0 mm 1 m/S 587 mmHg 52%
    13:00 +9°C° 0 mm 1 m/S 587 mmHg 48%
    14:00 +10°C° 0 mm 1 m/S 587 mmHg 44%
    15:00 +10°C° 0 mm 1 m/S 587 mmHg 44%
    16:00 +11°C° 0 mm 1 m/S 586 mmHg 43%
    17:00 +11°C° 0 mm 1 m/S 586 mmHg 43%
    18:00 +9°C° 0 mm 1 m/S 586 mmHg 50%
    19:00 +8°C° 0 mm 1 m/S 586 mmHg 57%
    20:00 +7°C° 0 mm 1 m/S 586 mmHg 64%
    21:00 +6°C° 0 mm 1 m/S 585 mmHg 65%
    22:00 +5°C° 0 mm 0 m/S 585 mmHg 67%
    23:00 +4°C° 0 mm 0 m/S 585 mmHg 69%

    übermorgen, 2 März, Montag

    Zeit Temperatur Niederschläge Wind Luftdruck Luftfeuchtigkeit
    00:00 +4°C° 0 mm 0 m/S 585 mmHg 69%
    01:00 +3°C° 0 mm 0 m/S 584 mmHg 70%
    02:00 +3°C° 0 mm 0 m/S 584 mmHg 71%
    03:00 +2°C° 0 mm 0 m/S 584 mmHg 70%
    04:00 +3°C° 0 mm 1 m/S 583 mmHg 70%
    05:00 +3°C° 0 mm 1 m/S 583 mmHg 69%
    06:00 +3°C° 0 mm 1 m/S 583 mmHg 67%
    07:00 +4°C° 0 mm 1 m/S 584 mmHg 65%
    08:00 +4°C° 0 mm 1 m/S 584 mmHg 63%
    09:00 +5°C° 0 mm 1 m/S 585 mmHg 57%
    10:00 +7°C° 0 mm 1 m/S 585 mmHg 51%
    11:00 +8°C° 0 mm 1 m/S 585 mmHg 45%
    12:00 +9°C° 0 mm 1 m/S 585 mmHg 42%
    13:00 +10°C° 0 mm 1 m/S 585 mmHg 38%
    14:00 +11°C° 0 mm 1 m/S 585 mmHg 34%
    15:00 +11°C° 0 mm 1 m/S 585 mmHg 33%
    16:00 +11°C° 0 mm 1 m/S 585 mmHg 32%
    17:00 +10°C° 0 mm 2 m/S 585 mmHg 32%
    18:00 +10°C° 0 mm 1 m/S 585 mmHg 37%
    19:00 +9°C° 0 mm 1 m/S 585 mmHg 43%
    20:00 +7°C° 0 mm 1 m/S 585 mmHg 49%
    21:00 +7°C° 0 mm 1 m/S 585 mmHg 50%
    22:00 +5°C° 0 mm 0 m/S 584 mmHg 52%
    23:00 +4°C° 0 mm 0 m/S 584 mmHg 54%

    3 März, Dienstag

    Zeit Temperatur Niederschläge Wind Luftdruck Luftfeuchtigkeit
    00:00 +4°C° 0 mm 0 m/S 584 mmHg 54%
    01:00 +3°C° 0 mm 0 m/S 584 mmHg 54%
    02:00 +3°C° 0 mm 0 m/S 583 mmHg 54%
    03:00 +3°C° 0 mm 0 m/S 583 mmHg 54%
    04:00 +2°C° 0 mm 0 m/S 583 mmHg 53%
    05:00 +2°C° 0 mm 0 m/S 582 mmHg 52%
    06:00 +3°C° 0 mm 0 m/S 583 mmHg 51%
    07:00 +3°C° 0 mm 0 m/S 583 mmHg 50%
    08:00 +4°C° 0 mm 0 m/S 584 mmHg 50%
    09:00 +5°C° 0 mm 0 m/S 584 mmHg 45%
    10:00 +6°C° 0 mm 0 m/S 585 mmHg 40%
    11:00 +8°C° 0 mm 0 m/S 585 mmHg 35%
    12:00 +10°C° 0 mm 1 m/S 585 mmHg 34%
    13:00 +11°C° 0 mm 1 m/S 585 mmHg 32%
    14:00 +12°C° 0 mm 2 m/S 584 mmHg 31%
    15:00 +12°C° 0 mm 2 m/S 584 mmHg 32%
    16:00 +11°C° 0 mm 3 m/S 584 mmHg 32%
    17:00 +11°C° 0 mm 3 m/S 583 mmHg 32%
    18:00 +10°C° 0 mm 2 m/S 583 mmHg 38%
    19:00 +9°C° 0 mm 2 m/S 583 mmHg 44%
    20:00 +9°C° 0 mm 1 m/S 583 mmHg 50%
    21:00 +8°C° 0.1 mm 1 m/S 583 mmHg 56%
    22:00 +6°C° 0.1 mm 2 m/S 582 mmHg 63%
    23:00 +6°C° 0.1 mm 2 m/S 582 mmHg 69%

    4 März, Mittwoch

    Zeit Temperatur Niederschläge Wind Luftdruck Luftfeuchtigkeit
    00:00 +5°C° 0.3 mm 2 m/S 582 mmHg 73%
    01:00 +5°C° 0.3 mm 2 m/S 581 mmHg 77%
    02:00 +5°C° 0.3 mm 2 m/S 581 mmHg 81%
    03:00 +4°C° 0.3 mm 2 m/S 581 mmHg 82%
    04:00 +5°C° 0.3 mm 1 m/S 580 mmHg 82%
    05:00 +5°C° 0.3 mm 1 m/S 580 mmHg 82%
    06:00 +5°C° 0.4 mm 1 m/S 580 mmHg 81%
    07:00 +5°C° 0.4 mm 1 m/S 581 mmHg 81%
    08:00 +5°C° 0.4 mm 1 m/S 581 mmHg 81%
    09:00 +5°C° 0.1 mm 3 m/S 582 mmHg 70%
    10:00 +6°C° 0.1 mm 4 m/S 582 mmHg 59%
    11:00 +8°C° 0.1 mm 6 m/S 583 mmHg 48%
    12:00 +8°C° 0 mm 6 m/S 583 mmHg 44%
    13:00 +9°C° 0 mm 7 m/S 582 mmHg 39%
    14:00 +9°C° 0 mm 7 m/S 582 mmHg 34%
    15:00 +9°C° 0 mm 7 m/S 582 mmHg 35%
    16:00 +7°C° 0 mm 8 m/S 581 mmHg 35%
    17:00 +7°C° 0 mm 8 m/S 581 mmHg 35%
    18:00 +7°C° 0 mm 6 m/S 581 mmHg 40%
    19:00 +6°C° 0 mm 5 m/S 581 mmHg 44%
    20:00 +4°C° 0 mm 4 m/S 580 mmHg 48%
    21:00 +4°C° 0 mm 3 m/S 581 mmHg 49%
    22:00 +4°C° 0 mm 3 m/S 581 mmHg 50%
    23:00 +3°C° 0 mm 3 m/S 581 mmHg 51%

    5 März, Donnerstag

    Zeit Temperatur Niederschläge Wind Luftdruck Luftfeuchtigkeit
    00:00 +3°C° 0 mm 3 m/S 581 mmHg 54%
    01:00 +3°C° 0 mm 2 m/S 580 mmHg 57%
    02:00 +2°C° 0 mm 2 m/S 580 mmHg 60%
    03:00 +2°C° 0 mm 2 m/S 579 mmHg 63%
    04:00 +1°C° 0 mm 2 m/S 579 mmHg 66%
    05:00 +2°C° 0 mm 1 m/S 579 mmHg 69%
    06:00 +2°C° 0 mm 1 m/S 579 mmHg 66%
    07:00 +2°C° 0 mm 1 m/S 580 mmHg 63%
    08:00 +3°C° 0 mm 1 m/S 580 mmHg 61%
    09:00 +4°C° 0 mm 1 m/S 580 mmHg 55%
    10:00 +5°C° 0 mm 1 m/S 581 mmHg 49%
    11:00 +6°C° 0 mm 1 m/S 581 mmHg 44%
    12:00 +5°C° 0 mm 2 m/S 581 mmHg 42%
    13:00 +6°C° 0 mm 2 m/S 580 mmHg 40%
    14:00 +7°C° 0 mm 2 m/S 580 mmHg 38%
    15:00 +5°C° 0 mm 3 m/S 580 mmHg 40%
    16:00 +5°C° 0 mm 3 m/S 579 mmHg 42%
    17:00 +5°C° 0 mm 4 m/S 579 mmHg 45%
    18:00 +4°C° 0 mm 3 m/S 579 mmHg 48%
    19:00 +3°C° 0 mm 3 m/S 579 mmHg 52%
    20:00 +4°C° 0 mm 2 m/S 579 mmHg 55%
    21:00 +3°C° 0 mm 2 m/S 579 mmHg 57%
    22:00 +4°C° 0 mm 1 m/S 579 mmHg 58%
    23:00 +3°C° 0 mm 1 m/S 579 mmHg 59%
    Mehr zeigen